Notices

What's New in latest Release from April 7th, 2021:

- Updated Glossary, including Speed of Maximum Gust, and Total Hourly Precipitation

- Updated national and regional climate services offices contacts and prices information

- Addition of station inventory lists for 1981-2010, 1971-2000, and 1961-1990 Normals.

If you haven't already, please take our survey and provide feedback about our website: https://eccc.sondage-survey.ca/f/LanguageSelection.aspx?s=442ca660-fcf1-47c0-95a9-59707d6fd709

Hourly Data Report for April 16, 2017

CLYDE RIVER A
NUNAVUT

70°29'09.000" N
68°31'01.000" W
26.50 m
2400804
71090
YCY

Download Data

Hourly Data (April 2017)
Hourly Data Report for April 16, 2017
TIME
LST
Temp Definition
°C
Dew Point Definition
°C
Rel Hum Definition
%
Precip. Amount Definition
mm

Wind Dir Definition
10's deg

Wind Spd Definition
km/h
Visibility Definition
km
Stn Press Definition
kPa
Hmdx Definition


Wind Chill Definition


Weather Definition


00:00 -15.0 -16.4 89 0.0   0 16.1 102.25     LegendNANA
01:00 -15.7 -17.1 89 0.0   0 16.1 102.24     LegendNANA
02:00 -19.0 -20.5 88 0.0   0 16.1 102.26     LegendNANA
03:00 -21.1 -22.5 89 0.0 12 15 16.1 102.26   -30 LegendNANA
04:00 -21.7 -23.2 88 0.0 10 9 9.7 102.26   -29 Fog
05:00 -22.6 -24.3 86 0.0   0 3.6 102.26     Fog
06:00 -23.0 -25.0 84 0.0 11 5 1.6 102.26   -28 Fog
07:00 -22.0 -24.0 84 0.0 LegendMM 4 8.1 102.25   -26 Fog
08:00 -19.8 -21.8 85 0.0   0 12.9 102.25     LegendNANA
09:00 -18.7 -20.5 86 0.0 26 5 8.1 102.23   -23 Fog
10:00 -18.4 -20.2 86 0.0 25 5 4.8 102.20   -22 Fog
11:00 -17.4 -19.2 86 0.0 24 4 16.1 102.17   -21 LegendNANA
12:00 -18.0 -19.7 87 0.0   0 16.1 102.16     LegendNANA
13:00 -17.2 -18.9 87 0.0 26 4 16.1 102.13   -20 LegendNANA
14:00 -16.7 -18.5 86 0.0 25 5 16.1 102.11   -21 LegendNANA
15:00 -17.3 -19.3 85 0.0 25 9 16.1 102.07   -24 LegendNANA
16:00 -17.8 -19.5 87 0.0 LegendMM 4 16.1 102.06   -21 LegendNANA
17:00 -18.3 -20.8 81 0.0 30 9 16.1 102.03   -25 LegendNANA
18:00 -18.8 -21.4 81 0.0 28 5 16.1 102.00   -23 LegendNANA
19:00 -18.3 -20.8 81 0.0 26 9 16.1 101.99   -25 LegendNANA
20:00 -17.6 -20.2 80 0.0 29 11 16.1 101.95   -25 LegendNANA
21:00 -16.9 -19.6 80 0.0 25 11 16.1 101.90   -24 LegendNANA
22:00 -16.3 -19.0 80 0.0 28 9 16.1 101.87   -22 LegendNANA
23:00 -16.2 -18.9 80 0.0 26 11 16.1 101.81   -23 LegendNANA

Notes on Data Quality.

Legend

  • E = Estimated
  • M = Missing
  • NA = Not Available*
  • [empty] = Indicates an unobserved value
Date modified: